Home   Weather   Belfast   Past weeks

Flag for United Kingdom Past Weather in Belfast, Northern Ireland, United Kingdom — Yesterday and Last 2 Weeks

Now
64 °F

Passing clouds.


Feels Like: 64 °F
Forecast: 57 / 69 °F
Wind: 16 mph from Southwest

Location: Belfast / Harbour

Current Time: Sep 27, 2016 at 4:39:19 PM

Latest Report: Sep 27, 2016 at 4:20 PM


Visibility: N/A

Pressure: 30.04 "Hg

Humidity: 60%

Dew Point: 50 °F

Location of BelfastLocation

Past Weather in Belfast — Graph

°F

Belfast Temperature Yesterday

Maximum temperature yesterday: 61 °F (at 4:50 PM)
Minimum temperature yesterday: 48 °F (at 6:20 AM)
Average temperature yesterday: 55 °F

High & Low Weather Summary for the Past Weeks

 TemperatureHumidityPressure
High72 °F (Sep 15, 1:20 PM)100% (Sep 15, 7:20 AM)30.27 "Hg (Sep 15, 7:20 AM)
Low45 °F (Sep 22, 6:50 AM)52% (Sep 16, 4:20 PM)29.56 "Hg (Sep 24, 4:20 PM)
Average59 °F78%29.95 "Hg
* Reported Sep 12 3:20 PM — Sep 27 3:20 PM, Belfast, Weather by CustomWeather, © 2016

Note: Actual official high and low records may vary slightly from our data, if they occured in-between our weather recording intervals... More about our weather records

Advertising

Belfast Weather History for the Previous 24 Hours

Scroll right to see more
 ConditionsComfort  
Time TempWeatherWind HumidityBarometerVisibility
3:20 PM
Tue, Sep 27
63 °FScattered clouds.15 mph64%30.04 "HgN/A
2:50 PM63 °FScattered clouds.12 mph64%30.01 "HgN/A
2:20 PM63 °FScattered clouds.15 mph64%30.01 "HgN/A
1:50 PM63 °FScattered clouds.12 mph64%30.04 "HgN/A
1:20 PM63 °FScattered clouds.15 mph64%30.01 "HgN/A
12:50 PM61 °FScattered clouds.16 mph68%30.01 "HgN/A
12:20 PM61 °FScattered clouds.17 mph68%29.98 "HgN/A
11:50 AM61 °FScattered clouds.15 mph68%29.98 "HgN/A
11:20 AM59 °FScattered clouds.13 mph72%29.98 "HgN/A
10:50 AM59 °FScattered clouds.12 mph72%29.95 "HgN/A
10:20 AM59 °FScattered clouds.12 mph72%29.92 "HgN/A
9:50 AM59 °FScattered clouds.14 mph77%29.92 "HgN/A
9:20 AM61 °FBroken clouds.13 mph83%29.89 "HgN/A
8:50 AM61 °FDrizzle. Broken clouds.17 mph88%29.86 "HgN/A
8:20 AM61 °FBroken clouds.14 mph88%29.86 "HgN/A
7:50 AM61 °FDrizzle. Broken clouds.13 mph88%29.83 "Hg4 mi
7:20 AM61 °FDrizzle. Broken clouds.13 mph88%29.83 "HgN/A
6:50 AM59 °FPartly cloudy.8 mph94%29.83 "Hg5 mi
6:20 AM59 °FPassing clouds.12 mph94%29.83 "HgN/A
9:20 PM
Mon, Sep 26
52 °FPassing clouds.3 mph94%30.01 "HgN/A
8:50 PM54 °FPassing clouds.3 mph88%30.01 "HgN/A
8:20 PM54 °FPassing clouds.5 mph88%30.01 "HgN/A
7:50 PM55 °FPassing clouds.6 mph82%30.01 "HgN/A
7:20 PM57 °FPassing clouds.5 mph77%30.01 "HgN/A
6:50 PM57 °FScattered clouds.3 mph77%29.98 "HgN/A
6:20 PM57 °FScattered clouds.2 mph72%29.98 "HgN/A
5:50 PM59 °FScattered clouds.3 mph63%29.98 "HgN/A
5:20 PM61 °FScattered clouds.3 mph59%29.98 "HgN/A
4:50 PM61 °FScattered clouds.6 mph63%29.98 "HgN/A
4:20 PM59 °FScattered clouds.3 mph68%29.98 "HgN/A
Weather by CustomWeather, © 2016

See weather overviewHow to use our weather pages